ASA580 KSFO-KSEA

Flight info

Callsign ASA580
Flight time N/A
Altitude 38000
Route TRUKN2 DEDHD RBL LMT HAWKZ8
Aircraft B738/M-SDGIRW/LB1

Departure

Time N/A
Airport San Francisco International Airport (KSFO)

Arrival

Time 2026-05-05 22:06
Airport Seattle–Tacoma International Airport (KSEA)
Time Latitude Longitude Altitude Speed Heading
2026-05-05 21:34 45.67257 -120.82686 36398 ft 369 kts 333°
2026-05-05 21:35 45.71762 -120.86553 36439 ft 386 kts 333°
2026-05-05 21:35 45.76459 -120.90570 36264 ft 406 kts 333°
2026-05-05 21:36 45.78934 -120.92684 35951 ft 419 kts 332°
2026-05-05 21:36 45.81446 -120.94835 35967 ft 423 kts 332°
2026-05-05 21:36 45.86495 -120.99167 35926 ft 422 kts 332°
2026-05-05 21:37 45.91518 -121.03486 35923 ft 419 kts 332°
2026-05-05 21:37 45.96514 -121.07786 35931 ft 418 kts 332°
2026-05-05 21:38 46.01493 -121.12078 35944 ft 417 kts 332°
2026-05-05 21:38 46.06467 -121.16374 35929 ft 417 kts 332°
2026-05-05 21:39 46.11441 -121.20680 35947 ft 417 kts 332°
2026-05-05 21:39 46.16426 -121.25004 35953 ft 418 kts 332°
2026-05-05 21:40 46.21383 -121.29313 35949 ft 419 kts 332°
2026-05-05 21:40 46.26379 -121.33666 35970 ft 420 kts 332°
2026-05-05 21:41 46.31396 -121.38046 35777 ft 424 kts 332°
2026-05-05 21:41 46.33939 -121.40269 35151 ft 426 kts 331°
2026-05-05 21:41 46.36474 -121.42489 34447 ft 425 kts 331°
2026-05-05 21:42 46.39009 -121.44711 33683 ft 426 kts 331°
2026-05-05 21:42 46.41554 -121.46944 32843 ft 428 kts 331°
2026-05-05 21:42 46.44102 -121.49183 32002 ft 429 kts 331°
2026-05-05 21:42 46.46660 -121.51433 31172 ft 430 kts 330°
2026-05-05 21:43 46.49228 -121.53693 30309 ft 433 kts 330°
2026-05-05 21:43 46.51779 -121.55941 29269 ft 436 kts 330°
2026-05-05 21:43 46.54380 -121.58237 28235 ft 438 kts 330°
2026-05-05 21:43 46.56974 -121.60529 27459 ft 434 kts 331°
2026-05-05 21:44 46.59539 -121.62800 26722 ft 429 kts 330°
2026-05-05 21:44 46.62079 -121.65052 26024 ft 424 kts 331°
2026-05-05 21:44 46.64584 -121.67274 25326 ft 420 kts 331°
2026-05-05 21:44 46.67066 -121.69475 24643 ft 415 kts 331°
2026-05-05 21:45 46.69520 -121.71656 23959 ft 412 kts 331°
2026-05-05 21:45 46.71961 -121.73826 23201 ft 409 kts 331°
2026-05-05 21:45 46.74382 -121.75981 22471 ft 406 kts 331°
2026-05-05 21:45 46.76781 -121.78119 21768 ft 402 kts 331°
2026-05-05 21:46 46.79152 -121.80234 21063 ft 397 kts 331°
2026-05-05 21:46 46.81481 -121.82314 20416 ft 390 kts 331°
2026-05-05 21:46 46.83783 -121.84373 19799 ft 386 kts 331°
2026-05-05 21:46 46.86065 -121.86415 19116 ft 384 kts 331°
2026-05-05 21:47 46.88339 -121.88451 18483 ft 382 kts 331°
2026-05-05 21:47 46.90606 -121.90482 17759 ft 382 kts 331°
2026-05-05 21:47 46.92870 -121.92511 17064 ft 380 kts 330°
2026-05-05 21:47 46.95088 -121.94504 16368 ft 378 kts 330°
2026-05-05 21:48 46.97321 -121.96511 15723 ft 375 kts 330°
2026-05-05 21:48 46.99540 -121.98509 15084 ft 373 kts 330°
2026-05-05 21:48 47.01752 -122.00502 14406 ft 372 kts 330°
2026-05-05 21:48 47.03947 -122.02482 13754 ft 370 kts 330°
2026-05-05 21:49 47.06136 -122.04458 13055 ft 368 kts 330°
2026-05-05 21:49 47.08308 -122.06421 12395 ft 365 kts 329°
2026-05-05 21:49 47.10462 -122.08369 11755 ft 363 kts 329°
2026-05-05 21:49 47.12606 -122.10310 11110 ft 361 kts 329°
2026-05-05 21:50 47.14707 -122.12210 10874 ft 347 kts 330°
2026-05-05 21:50 47.16896 -122.13491 10688 ft 333 kts 350°
2026-05-05 21:50 47.19157 -122.13459 10551 ft 320 kts
2026-05-05 21:50 47.21254 -122.12733 10444 ft 308 kts 14°
2026-05-05 21:51 47.23282 -122.11916 10355 ft 297 kts 14°
2026-05-05 21:51 47.25296 -122.11090 10001 ft 303 kts 14°
2026-05-05 21:51 47.27339 -122.10244 9601 ft 307 kts 15°
2026-05-05 21:51 47.29396 -122.09381 9227 ft 307 kts 15°
2026-05-05 21:52 47.33465 -122.07667 8464 ft 301 kts 15°
2026-05-05 21:52 47.35475 -122.06816 8104 ft 299 kts 15°
2026-05-05 21:52 47.37480 -122.05969 8028 ft 304 kts 14°
2026-05-05 21:53 47.39562 -122.05409 7979 ft 304 kts
2026-05-05 21:53 47.41663 -122.05053 7645 ft 307 kts
2026-05-05 21:53 47.43787 -122.04715 7254 ft 305 kts
2026-05-05 21:53 47.45889 -122.04388 6886 ft 303 kts
2026-05-05 21:54 47.47984 -122.04069 6501 ft 302 kts
2026-05-05 21:54 47.50062 -122.03752 6040 ft 298 kts
2026-05-05 21:54 47.52121 -122.03446 5641 ft 297 kts
2026-05-05 21:54 47.54178 -122.03156 5243 ft 297 kts
2026-05-05 21:55 47.56230 -122.02873 4924 ft 294 kts
2026-05-05 21:55 47.58275 -122.02595 4889 ft 296 kts
2026-05-05 21:55 47.60318 -122.02318 4840 ft 294 kts
2026-05-05 21:55 47.62344 -122.02040 4829 ft 288 kts
2026-05-05 21:56 47.64275 -122.01772 4812 ft 269 kts
2026-05-05 21:56 47.66091 -122.01521 4816 ft 258 kts
2026-05-05 21:56 47.67838 -122.01426 4820 ft 254 kts 351°
2026-05-05 21:56 47.69447 -122.02416 4838 ft 252 kts 322°
2026-05-05 21:57 47.70508 -122.04471 4846 ft 255 kts 292°
2026-05-05 21:57 47.70773 -122.07060 4856 ft 256 kts 268°
2026-05-05 21:57 47.70607 -122.09715 4761 ft 262 kts 265°
2026-05-05 21:57 47.70422 -122.12448 4413 ft 266 kts 265°
2026-05-05 21:58 47.70238 -122.15134 4083 ft 257 kts 265°
2026-05-05 21:58 47.70059 -122.17742 3879 ft 246 kts 265°
2026-05-05 21:58 47.69891 -122.20127 3833 ft 221 kts 265°
2026-05-05 21:58 47.69736 -122.22276 3856 ft 198 kts 265°
2026-05-05 21:59 47.69590 -122.24296 3899 ft 195 kts 265°
2026-05-05 21:59 47.69450 -122.26211 3889 ft 179 kts 265°
2026-05-05 21:59 47.69320 -122.27991 3896 ft 169 kts 265°
2026-05-05 21:59 47.69131 -122.29701 3896 ft 169 kts 249°
2026-05-05 22:00 47.68340 -122.30953 3939 ft 170 kts 207°
2026-05-05 22:00 47.67236 -122.31591 3923 ft 173 kts 191°
2026-05-05 22:00 47.66056 -122.31631 3940 ft 172 kts 178°
2026-05-05 22:00 47.64852 -122.31628 3925 ft 173 kts 180°
2026-05-05 22:01 47.63638 -122.31642 3769 ft 176 kts 180°
2026-05-05 22:01 47.62424 -122.31657 3540 ft 172 kts 180°
2026-05-05 22:01 47.61238 -122.31668 3312 ft 170 kts 180°
2026-05-05 22:01 47.60066 -122.31678 3084 ft 165 kts 180°
2026-05-05 22:02 47.58964 -122.31685 2864 ft 152 kts 181°
2026-05-05 22:02 47.57943 -122.31694 2669 ft 142 kts 180°
2026-05-05 22:02 47.56961 -122.31701 2498 ft 142 kts 181°
2026-05-05 22:02 47.55977 -122.31713 2315 ft 141 kts 181°
2026-05-05 22:03 47.54995 -122.31717 2126 ft 140 kts 181°
2026-05-05 22:03 47.54024 -122.31725 1944 ft 140 kts 182°
2026-05-05 22:03 47.53056 -122.31733 1748 ft 138 kts 181°
2026-05-05 22:03 47.52115 -122.31742 1569 ft 137 kts 181°
2026-05-05 22:04 47.51158 -122.31752 1364 ft 139 kts 181°
2026-05-05 22:04 47.50189 -122.31763 1225 ft 138 kts 182°
2026-05-05 22:04 47.49227 -122.31783 1057 ft 139 kts 181°
2026-05-05 22:04 47.48258 -122.31782 870 ft 140 kts 182°
2026-05-05 22:05 47.47282 -122.31782 663 ft 142 kts 181°
2026-05-05 22:05 47.46283 -122.31787 440 ft 143 kts 181°
2026-05-05 22:05 47.45365 -122.31797 398 ft 114 kts 180°
2026-05-05 22:05 47.44723 -122.31794 385 ft 70 kts 172°
2026-05-05 22:06 47.44419 -122.31603 373 ft 32 kts 150°
2026-05-05 22:06 47.44297 -122.31491 376 ft 16 kts 139°
2026-05-05 22:06 47.44278 -122.31386 379 ft 8 kts 51°
2026-05-05 22:06 47.44369 -122.31360 382 ft 20 kts 360°
2026-05-05 22:07 47.44522 -122.31359 386 ft 22 kts
2026-05-05 22:07 47.44643 -122.31310 390 ft 16 kts 69°
2026-05-05 22:07 47.44638 -122.31149 395 ft 16 kts 107°
2026-05-05 22:07 47.44557 -122.31025 391 ft 19 kts 151°
2026-05-05 22:08 47.44443 -122.30931 390 ft 19 kts 150°
2026-05-05 22:08 47.44355 -122.30805 392 ft 18 kts 109°
2026-05-05 22:08 47.44370 -122.30651 393 ft 14 kts 43°
2026-05-05 22:08 47.44463 -122.30632 395 ft 14 kts
2026-05-05 22:09 47.44558 -122.30631 397 ft 13 kts
2026-05-05 22:09 47.44653 -122.30631 400 ft 14 kts
2026-05-05 22:09 47.44748 -122.30630 403 ft 13 kts
2026-05-05 22:09 47.44806 -122.30554 406 ft 13 kts 88°
2026-05-05 22:10 47.44790 -122.30428 407 ft 13 kts 125°
2026-05-05 22:10 47.44735 -122.30329 406 ft 12 kts 130°
2026-05-05 22:10 47.44722 -122.30270 406 ft 4 kts 57°
2026-05-05 22:10 47.44742 -122.30249 407 ft 3 kts 30°
2026-05-05 22:11 47.44761 -122.30234 408 ft 2 kts 28°
2026-05-05 22:11 47.44770 -122.30228 404 ft 0 kts 27°
2026-05-05 22:11 47.44771 -122.30227 408 ft 0 kts 27°